SCP
0 0 0 0 0 0 0 0 -0 -0 0 0 0 0 0 0 0 0 0 -0 0 0 0 0 0 0 0 0 0 0 0 0 0 0 0 0 0 0 0 0 0 0 0 0 0 0 0 0 0
0 0 0 0 0 0 0 0 -0 0 0 0 0 0 0 0 0 0 0 0 0 0 0 0 0 0 0 0 0 0 0 0 0 0 0 0 0 0 0 0 0 0 0 0 0 0 0 0 0
0 0 0 0 0 0 0 0 0 0 0 0 0 0 0 0 0 0 0 0 0 0 0 0 0 0 0 0 0 0 0 0 0 0 0 0 0 0 0 0 0 0 0 0 0 0 0 0 0
0 0 0 0 0 0 0 0 0 0 0 0 0 0 0 0 0 0 0 0 0 0 0 0 0 0 0 0 0 0 0 0 0 0 0 0 0 0 0 0 0 0 0 0 0 0 0 0 0
0 0 0 0 0 0 0 0 0 0 0 0 0 0 0 0 0 0 0 0 0 0 0 0 0 0 0 0 0 0 0 0 0 0 0 0 0 0 0 0 0 0 0 0 0 0 0 0 0
0 0 0 0 0 0 0 0 0 0 0 0 0 0 0 0 0 0 0 0 0 0 0 0 0 0 0 0 0 0 0 0 0 0 0 0 0 0 0 0 0 0 0 0 0 0 0 0 0
0 0 0 0 0 0 0 0 0 0 0 0 0 0 0 0 0 0 0 0 0 0 0 0 0 0 0 0 0 0 0 0 0 0 0 0 0 0 0 0 0 0 0 0 0 0 0 0 0
0 0 0 0 0 0 0 0 0 0 0 0 0 0 0 0 0 0 0 0 0 0 0 0 0 0 0 0 0 0 0 0 0 0 0 0 0 0 0 0 0 0 0 0 0 0 0 0 0
0 0 0 0 0 0 0 0 0 0 0 0 0 0 0 0 0 0 0 0 0 0 0 0 0 0 0 0 0 0 0 0 0 0 0 0 0 0 0 0 0 0 0 0 0 0 0 0 0
0 0 0 0 0 0 0 0 0 0 0 0 0 0 0 0 0 0 0 0 0 0 0 0 0 0 0 0 0 0 0 0 0 0 0 0 0 0 0 0 0 0 0 0 0 0 0 0 0
0 0 0 0 0 0 0 0 0 0 0 0 0 0 0 0 0 0 0 0 0 0 0 0 0 0 0 0 0 0 0 0 0 0 0 0 0 0 0 0 0 0 0 0 0 0 0 0 0
0 0 0 0 0 0 0 0 0 0 0 0 0 0 0 0 0 0 0 0 0 0 0 0 0 0 0 0 0 0 0 0 0 0 0 0 0 0 0 0 0 0 0 0 0 0 0 0 0
0 0 0 0 0 0 0 0 0 0 0 0 0 0 0 0 0 0 0 0 0 0 0 0 0 0 0 0 0 0 0 0 0 0 0 0 0 0 0 0 0 0 0 0 0 0 0 0 0
0 0 0 0 0 0 0 0 0 0 0 0 0 0 0 0 0 0 0 0 0 0 0 0 0 0 0 0 0 0 0 0 0 0 0 0 0 0 0 0 0 0 0 0 0 0 0 0 0
0 0 0 0 0 0 0 0 0 0 0 0 0 0 0 0 0 0 0 0 0 0 0 0 0 0 0 0 0 0 0 0 0 0 0 0 0 0 0 0 0 0 0 0 0 0 0 0 0
0 0 0 0 0 0 0 0 0 0 0 0 0 0 0 0 0 0 0 0 0 0 0 0 0 0 0 0 0 0 0 0 0 0 0 0 0 0 0 0 0 0 0 0 0 0 0 0 0
0 0 0 0 0 0 0 0 0 0 0 0 0 0 0 0 0 0 0 0 0 0 0 0 0 0 0 0 0 0 0 0 0 0 0 0 0 0 0 0 0 0 0 0 0 0 0 0 0
0 0 0 0 0 0 0 0 0 0 0 0 0 0 0 0 0 0 0 0 0 0 0 0 0 0 0 0 0 0 0 0 0 0 0 0 0 0 0 0 0 0 0 0 0 0 0 0 0
0 0 0 0 0 0 0 0 0 0 0 0 0 0 0 0 0 0 0 0 0 0 0 0 0 0 0 0 0 0 0 0 0 0 0 0 0 0 0 0 0 0 0 0 0 0 0 0 0
0 0 0 0 0 0 0 0 0 0 0 0 0 0 0 0 0 0 0 0 0 0 0 0 0 0 0 0 0 0 0 0 0 0 0 0 0 0 0 0 0 0 0 0 0 0 0 0 0
0 0 0 0 0 0 0 0 0 0 0 0 0 0 0 0 0 0 0 0 0 0 0 0 0 0 0 0 0 0 0 0 0 0 0 0 0 0 0 0 0 0 0 0 0 0 0 0 0
0 0 0 0 0 0 0 0 0 0 0 0 0 0 0 0 0 0 0 0 0 0 0 0 0 0 0 0 0 0 0 0 0 0 0 0 0 0 0 0 0 0 0 0 0 0 0 0 0
0 0 0 0 0 0 0 0 0 0 0 0 0 0 0 0 0 0 0 0 0 0 0 0 0 0 0 0 0 0 0 0 0 0 0 0 0 0 0 0 0 0 0 0 0 0 0 0 0
0 0 0 0 0 0 0 0 0 0 0 0 0 0 0 0 0 0 0 0 0 0 0 0 0 0 0 0 0 0 0 0 0 0 0 0 0 0 0 0 0 0 0 0 0 0 0 0 0
0 0 0 0 0 0 0 0 0 0 0 0 0 0 0 0 0 0 0 0 0 0 0 0 0 0 0 0 0 0 0 0 0 0 0 0 0 0 0 0 0 0 0 0 0 0 0 0 0
0 0 0 0 0 0 0 0 0 0 0 0 0 0 0 0 0 0 0 0 0 0 0 0 0 0 0 0 0 0 0 0 0 0 0 0 0 0 0 0 0 0 0 0 0 0 0 0 0
0 0 0 0 0 0 0 0 0 0 0 0 0 0 0 0 0 0 0 0 0 0 0 0 0 0 0 0 0 0 0 0 0 0 0 0 0 0 0 0 0 0 0 0 0 0 0 0 0
0 0 0 0 0 0 0 0 0 0 0 0 0 0 0 0 0 0 0 0 0 0 0 0 0 0 0 0 0 0 0 0 0 0 0 0 0 0 0 0 0 0 0 0 0 0 0 0 0
0 0 0 0 0 0 0 0 0 0 0 0 0 0 0 0 0 0 0 0 0 0 0 0 0 0 0 0 0 0 0 0 0 0 0 0 0 0 0 0 0 0 0 0 0 0 0 0 0
0 0 0 0 0 0 0 0 0 0 0 0 0 0 0 0 0 0 0 0 0 0 0 0 0 0 0 0 0 0 0 0 0 0 0 0 0 0 0 0 0 0 0 0 0 0 0 0 0
Wind_Speed
3 3 3 3 4 3 4 5 4 5 3 2 1 1 1 3 3 5 5 9 9 14 15 15 14 13 12 12 12 11 11 11 11 11 11 11 11 12 12 12 13 13 13 13 14 14 14 14 14
3 3 4 3 4 5 6 5 5 3 4 4 3 3 3 4 4 6 7 10 11 15 14 14 15 13 13 13 13 12 12 11 11 11 11 11 11 11 11 12 12 12 12 13 13 13 13 13 13
2 3 3 3 3 3 6 5 4 3 3 3 3 1 1 5 5 6 7 12 12 14 13 13 14 14 13 13 13 13 12 11 11 11 11 11 11 11 11 11 11 11 11 12 12 12 12 12 12
3 3 3 4 4 2 2 4 4 5 4 2 2 4 4 4 3 5 10 13 14 15 13 14 14 14 13 13 13 13 12 11 11 10 10 10 10 11 10 10 10 10 10 10 11 11 11 11 11
2 3 4 4 3 2 1 1 3 5 4 3 3 2 5 5 3 6 11 12 14 14 13 14 14 14 13 13 13 13 12 11 11 10 10 10 10 10 9 9 9 9 9 9 9 9 9 10 10
2 3 5 6 5 3 3 3 4 4 4 3 3 2 4 5 5 7 11 11 12 13 13 13 15 13 13 13 13 12 12 11 11 10 10 10 9 9 8 8 8 7 7 7 7 7 8 8 8
2 2 3 4 5 4 3 2 4 4 4 3 2 3 4 7 6 8 10 10 11 13 12 12 13 13 13 12 13 12 12 12 11 10 10 9 8 8 7 6 6 6 6 6 6 6 6 7 7
1 2 4 4 5 4 3 2 1 3 2 2 3 4 2 8 8 9 9 9 10 11 12 11 12 12 12 12 12 11 11 11 11 10 9 8 8 7 6 5 4 3 3 3 3 4 5 5 5
3 4 5 4 4 3 3 3 2 1 2 3 4 3 5 8 10 10 10 9 10 11 11 11 11 11 10 10 11 11 10 10 10 9 10 8 5 5 5 4 2 1 1 2 3 4 4 3 1
3 5 4 2 2 1 2 3 2 4 6 6 6 4 5 9 11 12 13 14 13 14 13 11 11 11 10 8 9 8 8 8 7 7 8 5 3 2 1 4 1 0 1 1 2 2 2 4 2
3 3 3 3 2 2 3 4 3 6 8 8 8 6 9 10 12 13 13 13 14 14 13 12 12 11 10 8 7 5 5 5 6 7 6 4 3 3 2 2 3 2 3 2 1 4 2 3 3
3 3 3 3 2 3 5 4 5 9 10 5 5 4 8 12 13 14 13 12 12 13 14 14 13 11 11 9 7 6 5 5 4 6 6 4 2 2 2 2 1 2 2 2 3 3 4 5 5
5 3 3 4 4 5 6 9 9 11 11 6 5 7 10 12 12 12 10 11 12 13 14 14 14 13 11 10 7 7 6 6 6 5 5 5 3 3 3 2 2 2 2 3 3 4 5 5 6
3 4 4 4 5 4 7 9 7 11 7 7 8 10 11 11 12 11 11 12 13 13 14 14 15 14 13 10 9 8 7 6 6 5 6 6 4 3 3 3 3 3 3 3 4 5 5 5 5
3 5 6 4 4 3 5 10 10 9 6 9 10 10 10 11 11 12 12 12 13 13 13 14 15 15 14 12 11 7 7 6 6 5 6 6 5 4 3 3 3 3 3 4 4 5 5 5 6
4 6 6 3 3 3 6 11 5 4 7 10 11 10 10 11 12 12 11 11 11 12 13 14 12 14 15 12 10 7 7 7 5 5 5 6 6 5 4 3 3 2 2 3 4 4 5 5 5
7 7 7 4 3 3 7 11 9 6 9 13 13 12 11 11 12 11 11 10 10 12 13 14 15 15 14 12 9 8 6 6 5 5 5 5 5 5 4 3 2 2 2 3 3 4 5 6 6
7 8 7 7 2 5 10 15 15 13 12 15 14 13 12 12 12 10 10 9 9 11 12 14 15 15 14 10 8 6 6 5 4 5 5 5 4 5 4 2 3 2 2 2 3 4 4 5 5
7 9 11 9 4 6 13 18 19 16 14 15 14 13 13 13 10 8 8 9 9 11 12 14 15 14 12 10 9 8 7 6 5 4 5 5 5 5 4 3 2 2 2 2 3 4 5 4 4
10 12 13 9 3 6 13 19 19 15 14 13 13 13 12 11 10 10 10 10 11 12 13 14 15 15 14 11 9 6 6 5 4 4 5 5 5 5 3 4 3 2 2 3 2 3 4 3 3
13 14 13 11 7 7 10 14 11 8 8 9 10 11 11 10 11 12 12 11 11 12 13 12 14 15 14 12 8 7 5 4 5 6 5 5 5 5 5 4 3 2 3 2 3 3 4 4 3
13 10 10 9 9 7 4 11 11 9 9 7 6 6 7 8 10 10 11 12 12 11 11 12 13 14 13 13 12 13 9 8 8 6 6 6 6 5 5 4 4 3 2 3 3 3 3 4 4
7 2 5 6 8 10 8 10 10 7 7 5 5 5 5 6 8 10 11 11 11 10 10 11 12 13 13 13 13 13 10 8 6 7 8 7 6 5 5 4 4 3 3 3 3 3 4 4 4
7 6 3 3 6 10 8 9 9 5 5 8 9 8 6 4 6 8 9 9 10 10 9 10 12 12 12 13 13 13 12 10 10 9 8 7 5 5 6 5 4 4 3 3 4 4 5 5 5
10 8 6 7 7 7 3 8 11 7 7 10 12 12 9 4 6 8 10 11 11 12 11 11 13 13 13 13 12 12 12 12 11 10 9 7 6 5 6 5 5 4 4 4 4 5 5 6 6
14 12 9 7 6 3 5 9 8 7 8 8 8 8 7 4 5 8 10 11 11 12 12 13 14 13 13 13 12 11 11 8 7 9 7 7 5 5 6 6 5 5 5 4 5 5 6 6 7
11 11 9 7 5 7 8 7 9 7 5 3 4 4 4 2 4 8 10 11 12 12 13 13 14 13 13 13 12 11 11 9 8 8 7 6 5 4 6 6 5 5 5 5 6 5 6 6 7
7 8 7 8 8 10 9 9 7 6 3 4 5 5 5 2 3 7 9 10 11 11 12 12 13 13 13 12 11 8 10 9 8 8 8 7 6 6 6 6 6 6 6 6 6 6 7 8 8
11 11 9 8 8 8 8 6 5 7 5 4 4 4 5 3 3 6 8 9 10 11 11 12 12 12 12 12 11 11 10 9 9 8 8 7 6 6 6 6 6 6 7 7 7 8 8 9 9
14 15 15 11 10 8 8 8 3 7 6 5 6 5 5 3 3 5 7 9 10 11 12 12 12 13 12 11 11 10 9 9 9 8 8 7 7 6 6 6 6 7 7 7 8 9 9 10 11
Wind_Direction
302 291 256 238 215 186 146 132 143 141 138 97 107 177 93 58 30 62 93 149 143 154 156 159 158 153 148 138 130 124 119 112 106 103 96 91 86 80 76 72 69 67 64 62 61 60 59 59 58
306 274 236 236 224 176 148 155 160 124 99 119 135 159 141 95 64 96 133 152 155 156 158 158 155 155 149 141 135 128 122 118 111 107 101 95 90 84 79 74 72 69 66 63 62 61 60 59 59
258 268 250 212 214 178 144 149 146 120 138 179 156 152 43 99 112 118 126 152 158 157 160 150 156 156 151 145 141 134 129 125 118 111 106 100 94 88 82 77 74 71 68 66 63 62 61 60 58
246 217 224 221 168 117 124 127 146 156 156 184 200 146 119 75 80 97 134 156 160 160 160 152 162 160 155 150 145 140 135 132 125 119 112 106 98 91 85 81 77 74 72 69 66 63 60 58 56
246 233 198 182 158 129 146 123 176 182 166 168 217 164 132 109 96 126 150 160 163 161 161 157 165 164 160 157 150 146 142 139 133 127 120 113 106 99 93 87 82 77 73 69 66 63 60 57 55
205 229 211 186 160 147 150 168 189 191 171 166 210 208 120 117 140 145 157 165 165 162 163 159 167 167 165 163 158 154 150 147 142 136 130 123 117 113 104 95 87 80 74 70 65 61 58 56 53
236 215 203 182 171 170 144 175 204 199 200 180 212 230 140 136 125 147 159 163 166 167 168 167 169 171 170 167 163 161 157 154 149 143 136 130 125 122 114 105 97 88 78 70 63 57 52 48 44
300 192 177 187 188 172 138 172 219 243 219 103 227 248 161 127 132 144 153 161 168 173 177 175 175 175 173 170 164 163 163 161 156 149 141 136 134 130 128 130 111 97 81 65 53 47 45 40 34
244 226 203 190 197 169 157 197 167 267 236 201 225 290 63 120 141 148 156 165 175 183 184 183 182 178 178 172 164 168 166 164 162 155 147 156 157 146 151 106 114 106 52 35 31 30 25 354 62
223 228 207 178 212 203 199 239 213 214 230 230 219 191 144 159 169 174 177 178 182 187 189 188 188 181 179 173 174 176 173 170 176 168 166 171 163 147 144 130 168 312 339 293 355 338 285 284 326
209 225 190 202 224 254 246 243 222 239 251 256 257 226 178 185 192 197 195 190 189 188 189 192 192 187 182 178 180 175 172 171 175 174 172 170 173 170 190 191 186 210 236 258 252 261 304 322 330
207 203 218 221 199 231 252 255 240 240 259 284 271 247 193 201 203 205 202 196 190 191 193 194 193 192 190 185 181 179 177 177 176 176 180 181 185 198 199 230 238 254 262 292 290 301 303 300 299
219 207 218 242 240 252 259 255 266 260 262 264 251 229 221 217 213 211 210 201 196 197 195 195 195 195 192 189 185 186 184 183 180 179 187 194 198 208 213 230 237 258 274 276 285 287 297 295 299
217 229 244 255 248 240 254 263 253 261 264 252 240 235 229 225 220 210 206 206 203 201 198 195 195 196 194 192 190 188 187 186 185 183 189 194 206 218 226 236 245 259 266 279 283 288 294 296 299
218 247 250 229 238 238 255 260 239 258 256 257 250 242 234 229 222 219 212 210 207 204 199 195 195 196 195 195 192 188 187 186 187 185 191 195 203 215 222 239 249 259 270 275 281 289 291 294 296
210 238 244 201 222 204 246 270 261 245 250 266 263 250 237 228 224 222 216 214 209 203 199 194 191 195 195 193 189 186 187 184 184 184 189 197 202 208 218 236 250 258 265 274 283 290 291 292 297
221 242 249 247 202 216 245 275 282 269 263 270 267 256 243 233 225 219 214 212 207 203 196 191 190 192 192 189 185 180 178 181 180 179 186 192 196 203 216 230 242 247 258 269 281 286 298 301 305
230 242 252 262 234 247 265 275 283 281 269 269 268 259 245 238 229 214 206 204 200 198 192 189 187 188 185 180 177 168 169 174 176 179 183 185 188 193 204 211 223 233 244 261 274 285 289 297 307
250 253 264 273 277 268 275 283 286 285 276 269 266 259 248 241 228 203 196 191 187 186 185 184 183 182 179 177 176 175 176 173 175 176 176 179 180 183 189 196 201 220 245 264 279 287 290 294 315
233 251 265 276 249 268 288 286 284 280 273 272 272 266 256 244 216 200 191 185 185 183 182 182 182 181 182 181 177 177 167 170 167 162 169 175 176 175 182 192 195 205 230 242 261 280 293 300 310
232 247 261 274 286 251 290 284 277 279 273 272 268 266 261 243 225 203 192 188 184 183 182 181 180 182 182 176 162 148 141 148 166 171 171 174 174 173 175 186 194 200 229 245 255 268 277 291 290
239 239 253 262 274 282 302 298 295 298 293 281 286 281 269 246 229 208 195 190 188 183 178 180 178 179 178 175 177 177 182 184 185 176 172 170 176 175 177 184 195 204 223 239 248 257 269 276 281
231 181 213 243 262 276 252 266 282 288 286 312 329 321 295 259 229 209 199 192 185 177 176 177 176 178 177 182 185 189 192 185 168 167 170 172 172 177 180 189 197 209 224 239 246 250 257 261 271
154 137 142 207 247 258 247 249 277 265 288 315 320 325 321 271 226 209 194 186 180 175 175 176 176 178 179 184 187 193 187 176 169 175 175 177 175 181 186 193 205 216 226 233 241 248 253 258 263
187 205 226 226 222 243 174 241 259 277 293 299 304 312 319 282 219 200 189 186 182 180 179 179 179 179 180 185 188 190 186 182 183 181 183 183 183 188 190 196 210 217 223 233 241 247 254 254 257
196 211 226 250 253 241 193 241 260 293 295 291 290 298 306 277 218 203 196 192 188 185 184 183 183 181 180 184 187 186 183 184 186 187 184 189 191 191 188 200 214 223 228 233 238 248 250 253 253
181 213 238 260 268 267 244 250 278 271 272 289 309 323 327 301 220 206 198 195 192 190 189 188 186 182 181 184 183 184 183 185 182 181 185 189 190 183 192 204 216 225 231 238 245 249 252 254 256
217 181 182 217 240 249 250 247 247 239 261 313 332 344 346 321 222 206 200 198 195 193 190 190 190 187 184 184 183 183 184 183 180 181 185 188 188 187 197 209 220 229 236 240 244 253 256 259 259
179 192 206 214 237 249 257 243 219 238 257 287 312 332 331 311 240 209 201 197 194 190 189 191 191 189 186 186 183 183 182 181 183 186 188 189 191 195 205 214 224 234 242 246 249 253 257 259 263
213 208 203 215 219 234 261 263 197 237 255 265 283 301 309 301 249 216 201 192 192 193 192 193 193 192 190 186 185 184 180 181 187 190 189 190 196 201 211 219 231 240 246 250 254 259 260 261 264